SES-8

Last updated on Mon Oct 14 2024 00:02:39 GMT+0000 (Coordinated Universal Time)

1 39460U 13071A 24287.52202187 -.00000271 00000+0 00000+0 0 9993 2 39460 0.0151 248.4905 0001958 260.3861 156.6390 1.00270284 38298
UTC large
Height (km)
Speed (km/s)
/
Latitude / Longitude
Inclination (degrees)
Orbital Period (minutes)
Azimuth
Elevation
Range (km)
Doppler Factor

Next 0 passes for location: London (51.5072 / 0.1276)

Sorry there are no passes over London.